Regional Weather Roundup
Issued by NWS Wakefield, VA

Home | Current Version | Previous Version | Text Only | Print | Product List | Glossary Off
Versions: 1 2 3 4 5 6 7 8 9 10 11 12 13 14 15 16 17 18 19 20 21 22 23 24 25 26 27 28 29 30 31 32 33 34 35 36 37 38 39 40 41 42 43 44 45 46 47 48 49 50

036
ASUS41 KAKQ 212215
RWRAKQ

REGIONAL WEATHER ROUNDUP
NATIONAL WEATHER SERVICE WAKEFIELD VA
500 PM EST WED FEB 21 2018

Note: "fair" indicates few or no clouds below 12,000 feet with no
significant weather and/or obstructions to visibility. * = Denotes
station may not report precipitation (e.g., rain,snow,etc.),
thunder or fog.

VAZ042-051-052>054-056-212300-
NORTHERN VIRGINIA

CITY           SKY/WX    TMP DP  RH WIND       PRES   REMARKS
WASH NATIONAL  FAIR      79  61  53 S15G22    30.25S
DULLES         FAIR      79  61  53 S13G24    30.25R
FORT BELVOIR   FAIR      80  59  49 S8        30.25S
QUANTICO       FAIR      80  61  52 SW14G25   30.27R
FREDERICKSBRG* FAIR      80  63  55 SW17G26   30.27S
STAFFORD*      FAIR      81  61  50 SW10G21   30.31S
WARRENTON      FAIR      81  56  43 SW14G20   30.26R
CULPEPER*      FAIR      80  59  48 S13G22    30.27S
MANASSAS*      FAIR      80  62  54 SW9G17    30.26S
LEESBURG*      FAIR      81  63  54 S10G18    30.25R
WINCHESTER     MOCLDY    73  59  60 W5        30.28R
FRONT ROYAL*   MOCLDY    79  59  50 SW5       30.25R
LURAY*         MOCLDY    79  59  50 S12       30.26S
$$

VAZ048-049-060>072-079>083-212300-
CENTRAL AND SOUTH CENTRAL VIRGINIA

CITY           SKY/WX    TMP DP  RH WIND       PRES   REMARKS
RICHMOND       FAIR      77  62  59 S17       30.33S
CHESTERFIELD*  FAIR      77  63  61 S13       30.34S
PETERSBURG*    NOT AVBL
HANOVER        FAIR      78  61  55 S14G22    30.33S
TAPPAHANNOCK*  FAIR      78  63  59 S9        30.33S
QUINTON*       FAIR      76  64  64 S7        30.33F
CHARLOTTSVILLE FAIR      79  61  53 SW21G30   30.28S
GORDONSVILLE*  FAIR      78  63  59 S14G22    30.28S
ORANGE*        FAIR      77  61  57 S12G25    30.28S
LOUISA*        FAIR      78  60  54 SW12G17   30.34F
BUMPASS*       MOCLDY    78  59  51 SW14G21   30.30S
FARMVILLE*     FAIR      79  61  53 SW12G18   30.31S
CREWE*         FAIR      77  63  61 S7        30.34S
FORT PICKETT*  FAIR      75  62  62 S17G29    30.35F
CHASE CITY*    FAIR      76  62  62 S7        30.36S
CLARKSVILLE*   FAIR      75  61  60 S7G16     30.36S
SOUTH HILL*    FAIR      74  64  69 S12       30.43S
LAWRENCEVILLE* FAIR      74  63  68 S8        30.37F
EMPORIA*       PTSUNNY   72  63  73 S5        30.40S
$$

VAZ088>098-212300-
SOUTHEAST VIRGINIA

CITY           SKY/WX    TMP DP  RH WIND       PRES   REMARKS
NORFOLK        FAIR      77  61  57 SW14      30.37S
VIRGINIA BEACH FAIR      76  60  57 SW10      30.37S
NORFOLK NAVAL  FAIR      75  61  61 SW13      30.39S
WEST POINT*    FAIR      75  61  62 S9        30.36S
SALUDA*        FAIR      76  64  67 SW12      30.35R
NEWPORT NEWS   FAIR      73  62  68 SW13      30.38R
LANGLEY AFB    FAIR      74  63  67 SW14G24   30.38R
FORT EUSTIS    FAIR      73  63  72 S8        30.35S
WILLIAMSBURG*  FAIR      79  64  61 SW8       30.38R
HR EXEC AP*    FAIR      76  62  62 SW10G17   30.39S
FRANKLIN*      CLOUDY    73  63  70 SW3       30.39S
US460-WAKEFLD  FAIR      73  64  73 S7        30.37F
$$

VAZ020-022-025-037-045-212300-
WEST CENTRAL AND SOUTHWEST VIRGINIA

CITY           SKY/WX    TMP DP  RH WIND       PRES   REMARKS
STAUNTON*      CLOUDY    76  60  57 S5        30.31R
WAYNESBORO*    FAIR      74  61  63 S13G21    30.31R
HOT SPRINGS VA CLOUDY    61  52  73 SW8       30.41S
LYNCHBURG      PTSUNNY   74  60  61 SW13      30.34S
DANVILLE       FAIR      75  62  64 VRB6      30.35F
SOUTH BOSTON*  FAIR      77  59  53 S12       30.35F
MARTINSVILLE   PTSUNNY   73  61  66 CALM      30.39S
ROANOKE        FAIR      73  61  65 S10       30.35R
BLACKSBURG     PTSUNNY   70  60  70 S7        30.40R
DUBLIN*        PTSUNNY   72  59  62 S14       30.38R
MARION*        CLOUDY    73  56  55 SE6       30.38S
HILLSVILLE*    CLOUDY    67  61  79 S6        30.40S
RICHLANDS*     CLOUDY    73  54  51 W6        30.36S
WISE*          CLOUDY    68  61  77 SW8       30.37S
ABINGDON*      FAIR      79  56  45 W3        30.33S
$$

MDZ021>025-VAZ099-100-212300-
SOUTHERN MARYLAND AND THE DELMARVA PENINSULA

CITY           SKY/WX    TMP DP  RH WIND       PRES   REMARKS
PATUXENT RIVER FAIR      77  62  59 S12       30.29S
BAY BRIDGE APT FAIR      77  61  57 S9G17     30.26S
LEONARDTOWN    FAIR      77  61  57 SW9       30.31S
DOVER          PTCLDY    76  62  61 SW15      30.27R
GEORGETOWN     FAIR      75  61  61 SW13      30.31R
EASTON         PTCLDY    77  61  57 SW14G21   30.31S
CAMBRIDGE      CLEAR     75  61  60 S10G21    30.29S
SALISBURY      FAIR      73  62  68 S13       30.32S
OCEAN CITY     FAIR      57  54  89 S7        30.34R
WALLOPS ISLAND FAIR      64  56  75 S9        30.35R
ACCOMACK*      FAIR      74  63  68 SW14G24   30.35S
$$

NCZ012>017-030>032-212300-
NORTH CENTRAL AND EASTERN NORTH CAROLINA

CITY           SKY/WX    TMP DP  RH WIND       PRES   REMARKS
ROANOKE RAPIDS MOCLDY    73  63  68 S8        30.39S
RALEIGH        PTSUNNY   75  63  66 SW6       30.39F
ELIZABETH CITY FAIR      78  63  59 SW8       30.40R
AHOSKIE*       FAIR      73  63  70 CALM      30.40S
EDENTON*       FAIR      77  61  56 W3        30.41R
CURRITUCK*     FAIR      73  56  55 SW12      30.40R
KILL DEVIL HLS FAIR      71  62  73 S5        30.40R
MANTEO         FAIR      67  60  80 S13       30.42S
CAPE HATTERAS  FAIR      70  66  87 SW8       30.45R
TARBORO*       NOT AVBL
GOLDSBORO      PTSUNNY   79  61  54 SW5       30.38S
WASHINGTON     FAIR      79  60  51 S3        30.40S
GREENVILLE     FAIR      81  61  50 SW7       30.40S
NEW BERN       FAIR      76  62  62 S12       30.42S
WILMINGTON     FAIR      75  65  70 S10       30.42S
$$

VAZ048-212300-
ELSEWHERE

CITY           SKY/WX    TMP DP  RH WIND       PRES   REMARKS
HARRISBURG PA  MOCLDY    75  57  53 SW5       30.21R
BALTIMORE      FAIR      79  61  53 SW9       30.23F
ANNAPOLIS      FAIR      82  62  50 S9G16     30.24F
ANDREWS AFB    FAIR      79  60  52 S14       30.25S
PHILADELPHIA   FAIR      74  60  61 SW12      30.25S
HENDERSON NC   FAIR      72  59  64 S10       30.38F
GREENSBORO     PTSUNNY   75  61  61 SW10      30.37S
ROCKY MOUNT    FAIR      77  62  59 SW6       30.40S
$$

VAZ100-212300-
MARINE

STATION/POSITION TIME  TEMP    WIND        PRES    WAVE   SWELL
                       AIR SEA DIR/SP/G            HT/PER HT/PER
                 (UTC) (F)     (DEG/KT/KT) (MB)    (FT/S) (FT/S)
BRANDYWINE LGT   2148          230/ 17/ 19   N/A
CAPE MAY NJ      2136   61 43  220/ 11/ 15 1025.6R
LEWES DE         2136   76 44  240/  8/ 14 1025.9R
15NM E FENWICK I 2150   49 42  200/ 14/ 16 1027.5R   3/14   2/14
OCEAN-CITY-INLET 2136   47 42  210/ 11/ 14 1027.8R
WACHAPREAGUE VA  2136   74 62  230/ 10/ 14 1027.7F
THOMAS POINT MD  2200   62 40  190/ 15/ 18   N/A
GOOSES REEF MD   2150   58     190/ 10/ 12 1024.8F
COVE POINT MD    2136   77     220/ 14/ 20 1026.2S
SOLOMONS ISLAND  2136   73 45  210/ 13/ 15 1025.4S
BISHOPS HEAD MD  2136   57 55  160/  9/ 10 1027.0F
PINEY POINT MD   2148          230/ 16/ 19   N/A
POTOMAC MD       2150   62      40/ 14/ 14 1025.8F
CAMBRIDGE MD     2136   75 47              1026.5R
LEWISETTA VA     2136   74 48  230/ 13/ 19 1026.4R
RAPPAHANNOCK LGT 2148          190/ 12/ 14 1028.5R
STINGRAY PT      2150   63     250/ 12/ 14 1030.7R
YORK RVR RNG VA  2148   67     230/ 17/ 19 1028.6S
YORKTOWN VA      2148   74 46  220/ 12/ 16 1027.8S
DOMINION TERM VA 2148   66     250/ 10/ 11 1029.0S
KIPTOPEKE VA     2148      45  250/  7/  9   N/A
CAPE HENRY VA    2148   76     230/  8/ 13   N/A
S CRANEY ISL VA  2148   75     240/ 10/ 15 1028.6R
CAPE HENRY BUOY  2200      46                N/A     2/13   2/13
1ST LANDING BUOY 2150   60     270/  8/ 10 1028.8R
CAPE CHARLES BUO 2151      49                N/A     2/13   2/13
64NM E OF VA BCH 2150   56 52  200/ 10/ 10 1030.4R   3/14   3/14
DUCK PIER NC     2148   63 45  130/  4/  4 1029.3R
44100 DUCK FRF   2045      50                N/A     3/13   2/13
44056 DUCK FRF   2200      49                N/A     2/13   2/13
OREGON INLET NC  2148          180/ 12/ 15   N/A
HATTERAS NC      2148   69 60  180/  4/  8 1030.9R
DIAMOND SHLS NC  2150   72 71  210/ 10/ 12 1031.3F   4/11   3/11
CAPE LOOKOUT NC  2200          200/  8/ 10 1031.3S
$$




USA.gov is the U.S. government's official web portal to all federal, state and local government web resources and services.